CZ-6A DEB

Satellite information

Favourite Embed

Satellite Type and Status

DEBRISIN ORBIT

Key statistics

Satellite CZ-6A DEB at a glance.

Uptime

1031

Days in orbit

Revolutions

≈ 13.9

Per day

Orbit

SSO

Sun Synchronous Orbit

Inclination

98.8

Latest

Satellite identification and parameters

Extended collection of information and parameters for CZ-6A DEB.

Object identification

Identified? True

Debris? True

Object name: CZ-6A DEB

International designator: 2022-151AFQ

Object number (NORAD): 56640

Object ID (CCSDS): 56640

Country: PEOPLES REPUBLIC OF CHINA (PRC)

Current information (Y/N): Y

RCS size: SMALL

Orbital parameters

Period: 103.323 minutes

Inclination: 98.7687 deg

SMA: 7293.895 km

Apoapsis: 1013.083 km

Periapsis: 818.436 km

RAAN: 207.9075 deg

Eccentricy: 0.0133431

Argument of periapsis: 139.9792 deg

Mean anomaly: 221.1295 deg

Mean motion: 13.93681524 rev/day

Mean motion (dot): 0.00001552 rev/day2

B* drag term: 0.0011247841 1/REarth

Two-line elements (TLE)

Creation date: Sept. 5, 2025, 7:38 p.m.

Reference frame: TEME

Reference center: EARTH

Epoch: Sept. 5, 2025, 8:16 a.m. UTC

TLE line 0: 0 CZ-6A DEB

TLE line 1: 1 56640U 22151AFQ 25248.34444730 .00001552 00000-0 11248-2 0 9993

TLE line 2: 2 56640 98.7687 207.9075 0133431 139.9792 221.1295 13.93681524125184

Live tracking on map

Real-time ground track for satellite CZ-6A DEB.

In-orbit conjunctions

A list of the most updated potential collisions computed for object CZ-6A DEB.

Target Orbit TCA Probability of collision Miss distance Type
SL-8 R/B LEO 2025-08-03 04:38:56 0.0001299605 454.0 (m) ROCKET BODY
METEOR 2-19 LEO 2025-01-07 07:32:30 0.0001117326 115.0 (m) PAYLOAD

Associated space launch

Chinese satellite reported for atmospheric/ocean/environmental/spatial parameter research purposes, details TBD.

CZ-6A DEB was lifted into orbit during the mission ‘Long March 6A | Yunhai 3’, on board a Long March 6A space rocket.

The launch took place on Nov. 11, 2022, 10:52 p.m. from Launch Complex 9A.

For more information about the launch, click the button.

Launch to space Long March 6A | Yunhai 3
Long March 6A | Yunhai 3

Agency: N/A

Status: Launch Successful

Launch date: Nov. 11, 2022, 10:52 p.m. UTC

Rocket: Long March 6A

Launch pad: Launch Complex 9A

Location: Taiyuan Satellite Launch Center, People's Republic of China

...

Latest news about this satellite

There are no fresh news available about this satellite. Check back as we update our databases every day.


Newsletter sign-up

Weekly statistics, charts and insights to help you stay on top of the space industry.